Flag for Guinea Weather past 2 weeks in Nzérékoré, Guinea

Now
75 °F

Passing clouds.


Feels Like: 74 °F
Forecast: 71 / 87 °F
Wind: 5 mph from Northeast

Location: Roberts Field

Current Time: Apr 27, 2015 at 6:40:08 AM

Latest Report: Apr 27, 2015 at 6:00 AM


Visibility: 6 mi

Pressure: 29.89 "Hg

Humidity: 94%

Dew point: 73 °F

Location of NzérékoréLocation

Historic Weather in Nzérékoré — Graph

°F

Nzérékoré temperature yesterday

Maximum temperature yesterday: 88 °F (at 2:00 PM)
Minimum temperature yesterday: 79 °F (at 12:30 AM)
Average temperature yesterday: 82 °F

Past Weeks' High & Low Weather Summary

 TemperatureHumidityPressure
High93 °F (Apr 21, 1:30 PM)100% (Apr 18, 7:00 AM)30.01 "Hg (Apr 18, 7:00 AM)
Low73 °F (Apr 13, 12:30 AM)55% (Apr 17, 5:00 PM)29.77 "Hg (Apr 20, 4:30 PM)
Average83 °F83%29.88 "Hg
* Reported Apr 12 5:00 AM — Apr 27 5:30 AM, Nzérékoré, Weather by CustomWeather, © 2015

Note: Actual official high and low records may vary slightly from our data, if they occured in-between our weather recording intervals... More about our weather records

Advertising

Nzérékoré weather history for previous 24 hours

 ConditionsComfort  
Time TempWeatherWind HumidityBarometerVisibility
5:30 AM
Mon, Apr 27
75 °FPassing clouds.5 mph94%29.89 "Hg6 mi
5:00 AM75 °FPassing clouds.6 mph94%29.89 "Hg6 mi
4:30 AM75 °FPassing clouds.6 mph94%29.89 "Hg6 mi
12:00 AM79 °FPassing clouds.3 mph94%29.95 "HgN/A
11:30 PM
Sun, Apr 26
79 °FPassing clouds.5 mph94%29.95 "HgN/A
11:00 PM79 °FPassing clouds.5 mph94%29.95 "HgN/A
10:30 PM79 °FPassing clouds.No wind94%29.95 "HgN/A
10:00 PM79 °FPassing clouds.3 mph94%29.95 "HgN/A
9:30 PM79 °FPassing clouds.No wind94%29.92 "HgN/A
9:00 PM81 °FPassing clouds.No wind89%29.92 "HgN/A
8:30 PM81 °FPassing clouds.No wind89%29.89 "HgN/A
8:00 PM81 °FPassing clouds.No wind89%29.89 "HgN/A
7:30 PM81 °FScattered clouds.5 mph89%29.86 "HgN/A
7:00 PM82 °FScattered clouds.5 mph84%29.86 "HgN/A
6:30 PM84 °FScattered clouds.3 mph79%29.86 "HgN/A
6:00 PM84 °FPassing clouds.6 mph79%29.86 "HgN/A
5:30 PM86 °FPassing clouds.9 mph75%29.86 "HgN/A
5:00 PM86 °FScattered clouds.7 mph75%29.83 "HgN/A
4:30 PM86 °FScattered clouds.10 mph75%29.83 "HgN/A
4:00 PM88 °FScattered clouds.13 mph66%29.86 "HgN/A
3:30 PM88 °FPassing clouds.12 mph66%29.86 "HgN/A
3:00 PM88 °FScattered clouds.9 mph66%29.86 "HgN/A
2:30 PM88 °FScattered clouds.8 mph66%29.89 "HgN/A
2:00 PM88 °FPartly sunny.8 mph66%29.89 "HgN/A
1:30 PM86 °FPartly sunny.8 mph75%29.92 "HgN/A
1:00 PM86 °FPartly sunny.7 mph75%29.92 "HgN/A
12:30 PM84 °FPartly sunny.3 mph79%29.92 "HgN/A
12:00 PM82 °FPartly sunny.5 mph84%29.92 "HgN/A
11:30 AM81 °FOvercast.7 mph89%29.95 "HgN/A
11:00 AM81 °FThunderstorms. Overcast.5 mph89%29.95 "HgN/A
10:30 AM82 °FThunderstorms. Partly sunny.No wind84%29.95 "HgN/A
10:00 AM82 °FThunderstorms. Partly sunny.3 mph84%29.95 "HgN/A
9:30 AM84 °FThunderstorms. Partly sunny.3 mph79%29.95 "HgN/A
9:00 AM84 °FPartly sunny.5 mph84%29.95 "HgN/A
8:30 AM82 °FPartly sunny.3 mph84%29.92 "HgN/A
8:00 AM81 °FScattered clouds.5 mph89%29.92 "HgN/A
7:30 AM81 °FPartly sunny.No wind94%29.89 "HgN/A
6:00 AM79 °FPassing clouds.No wind94%29.86 "HgN/A
Weather by CustomWeather, © 2015

See weather overviewHow to use our weather pages